GSAT0103 (GALILEO-FM3)

Last updated on Mon Oct 27 2025 00:02:33 GMT+0000 (Coordinated Universal Time)

1 38857U 12055A 25299.42757432 .00000056 00000+0 00000+0 0 9994 2 38857 55.6630 107.9654 0001639 273.3065 86.6896 1.70473561 81023
UTC large
Height (km)
Speed (km/s)
/
Latitude / Longitude
Inclination (degrees)
Orbital Period (minutes)
Azimuth
Elevation
Range (km)
Doppler Factor

Next 0 passes for location: London (51.5072 / 0.1276)

Sorry there are no passes over London.